Orbital Elements at Epoch 2459000.5 (2020-May-31.0) TDB
Reference: JPL 15 (heliocentric ecliptic J2000)
Element | Value | Uncertainty (1-sigma) | Units |
e | .08323627624826625 | 9.0728e-08 | |
a | 1.882448641750795 | 1.253e-08 | au |
q | 1.725760626582852 | 1.6977e-07 | au |
i | 26.82154690234301 | 7.7621e-06 | deg |
node | 89.16742904180002 | 1.0208e-05 | deg |
peri | 266.1879900911665 | 5.1311e-05 | deg |
M | 333.2346714977102 | 5.278e-05 | deg |
tp | 2459070.637972688530 (2020-Aug-09.13797269) | 0.00013841 | TDB |
period | 943.37232459936 2.58 | 9.4188e-06 2.579e-08 | d yr |
n | .381609668433816 | 3.8101e-09 | deg/d |
Q | 2.039136656918738 | 1.3573e-08 | au |
|
| | Orbit Determination Parameters
Additional Information
|